Location: Ferchesar
(52.6477°N, 12.4298°E)
Time: 18:55:28
(UTC+01:00)

Transit 4A - Pass Details

Date: 12 December 2021
Orbit: 864 x 980 km, 66.8° (Epoch: 16 January)

Event Time Altitude Azimuth Distance (km) Brightness Sun altitude
Rises 18:49:34 0° 232° (SW) 3,480 11.8 -25.0°
Reaches altitude 10° 18:52:03 10° 237° (WSW) 2,558 11.0 -25.3°
Maximum altitude 18:57:55 59° 317° (NW) 1,046 8.2 -26.2°
Enters shadow 18:59:57 40° 16° (NNE) 1,332 8.5 -26.5°
